View from above orbital plane
|
View from above satellite
|
Ground track
|
The orbit data is extracted from the following two-line orbital elements,
1 13807U 81053HB 22226.29727795 .00001010 00000-0 47827-3 0 9991
2 13807 82.9517 72.5383 0012115 349.0723 11.0192 14.18736723779918
Epoch (UTC): | 14 August 2022 07:08:04 |
Eccentricity: | 0.0012115 |
inclination: | 82.9517° |
perigee height: | 821 km |
apogee height: | 838 km |
right ascension of ascending node: | 72.5383° |
argument of perigee: | 349.0723° |
revolutions per day: | 14.18736723 |
mean anomaly at epoch: | 11.0192° |
orbit number at epoch: | 77991 |
The dashed part of the orbit path shows where the satellite is in the earth's shadow,
|
|